Temp
55 55 53 53 53 55 54 54 54 54 54 55 55 55 56 56 55 55 54 53 53 52 51 51 52 51 51 51 51 51 52 52 53 55 55 55 56 58 59 60 61 62
54 54 54 53 53 54 54 54 54 54 53 54 55 55 56 56 55 54 53 52 52 51 51 51 50 51 50 50 50 49 49 50 50 53 52 53 54 55 57 58 59 61
52 53 52 52 51 51 52 53 53 53 53 53 54 54 54 55 54 55 53 52 51 50 50 50 50 50 49 49 48 48 47 47 48 49 49 50 51 52 53 55 56 58
51 52 52 52 51 51 51 51 51 51 52 52 52 54 54 53 53 53 51 51 50 49 49 49 48 48 48 48 47 46 47 47 47 47 47 48 49 50 51 53 55 56
51 51 52 52 52 52 51 50 49 50 50 50 50 52 52 52 51 51 50 49 49 48 48 47 47 47 47 46 47 45 46 46 47 47 47 47 48 49 51 52 52 53
50 51 52 52 51 50 49 49 49 49 48 48 48 49 49 50 50 49 48 47 47 47 46 46 46 46 46 45 46 46 46 46 47 47 47 47 48 50 51 51 52 52
49 49 49 50 50 50 49 49 49 49 48 48 49 48 48 48 48 48 48 47 47 47 46 45 45 45 45 45 45 45 46 47 47 47 47 47 48 49 51 51 52 52
49 50 50 49 49 49 49 49 48 48 48 48 47 47 48 48 48 48 47 47 46 46 45 45 45 45 45 44 44 44 45 46 46 47 47 48 48 49 50 51 52 52
49 48 49 48 48 48 47 48 48 48 49 47 47 47 48 48 47 47 47 46 46 45 45 45 44 44 44 44 43 43 44 45 46 46 47 47 48 49 50 51 51 51
48 48 47 47 47 47 47 47 47 48 49 47 47 47 46 47 47 47 46 46 45 45 44 44 44 44 44 43 43 43 44 44 45 46 47 48 48 49 50 50 49 49
47 47 47 46 46 46 46 47 47 47 48 47 46 46 46 46 46 47 46 45 44 44 44 44 44 44 43 43 43 43 44 44 45 46 47 48 48 49 50 49 49 48
46 46 46 46 46 46 46 46 46 46 46 47 47 45 45 45 45 45 46 44 44 44 44 44 44 44 43 43 42 43 43 44 44 45 46 47 48 48 48 49 48 48
45 45 45 45 45 45 45 45 45 45 45 45 46 45 44 44 44 44 45 44 44 44 44 44 43 43 43 42 42 42 42 43 43 44 45 46 46 47 48 48 48 48
44 44 45 45 45 45 44 44 44 44 44 44 45 44 44 44 43 43 44 44 44 44 44 44 43 43 43 42 42 42 42 42 43 43 44 44 45 46 46 47 47 47
44 44 44 44 44 44 44 43 43 43 43 44 44 43 44 44 44 43 43 43 43 43 43 43 43 42 43 42 41 41 42 42 42 43 43 44 44 45 45 46 46 46
43 44 43 43 43 42 42 43 43 43 43 43 43 43 43 44 43 43 42 42 42 42 42 42 42 43 43 42 42 41 41 42 42 43 43 44 44 43 44 45 45 45
43 42 43 42 42 42 42 42 42 42 42 42 42 42 42 42 42 41 41 41 41 41 41 41 42 44 41 40 40 40 42 42 41 42 43 44 44 43 43 43 44 44
42 42 42 41 41 41 41 41 41 41 41 41 41 41 41 41 40 40 40 40 41 40 40 41 41 43 39 40 40 39 41 42 42 41 42 43 43 43 43 43 43 43
42 41 41 41 40 40 40 40 40 40 40 40 40 41 40 40 39 39 39 40 40 39 40 41 41 42 40 40 39 39 39 41 42 42 42 42 42 42 43 43 42 42
41 41 40 40 40 40 40 40 39 39 38 39 40 39 39 39 39 38 39 39 39 39 38 40 40 42 40 40 39 39 39 40 42 42 42 42 42 42 42 42 42 41
40 40 40 39 39 39 39 39 38 38 39 39 38 38 37 37 37 37 39 39 38 38 39 39 40 41 39 39 39 39 39 41 41 42 42 42 42 42 42 42 41 41
39 38 38 38 38 38 38 38 38 37 37 39 39 37 38 38 38 39 38 37 38 38 38 38 39 40 39 39 39 38 40 42 41 41 41 41 41 41 41 42 42 42
38 38 39 38 37 37 37 37 37 38 37 39 37 37 37 37 37 37 37 37 38 38 38 38 38 40 39 39 39 39 40 41 41 41 41 40 40 41 41 41 41 42
38 38 38 38 36 37 36 36 37 37 37 38 36 36 37 36 37 37 37 37 37 37 39 38 37 40 40 39 39 39 40 40 41 40 40 39 39 40 41 41 41 43
37 37 37 36 37 37 37 37 37 37 37 36 36 36 37 36 38 36 37 37 37 38 41 38 38 40 40 39 39 39 40 41 41 40 39 38 39 39 40 40 40 41
38 39 37 36 36 36 36 36 37 36 36 36 36 36 36 36 36 37 36 37 37 37 37 37 38 39 41 39 39 39 39 41 41 40 37 37 38 39 38 39 39 40
MSLP
1022.79 1022.84 1022.96 1022.96 1022.91 1022.91 1022.91 1022.88 1022.79 1022.72 1022.72 1022.67 1022.67 1022.64 1022.52 1022.47 1022.43 1022.35 1022.35 1022.28 1022.23 1022.16 1022.03 1021.88 1021.64 1021.40 1021.23 1021.03 1020.88 1020.67 1020.35 1020.11 1019.79 1019.43 1019.20 1018.88 1018.47 1018.08 1017.72 1017.35 1017.08 1016.88
1023.23 1023.32 1023.35 1023.43 1023.40 1023.35 1023.35 1023.32 1023.28 1023.23 1023.23 1023.20 1023.11 1022.99 1022.84 1022.72 1022.67 1022.67 1022.64 1022.55 1022.43 1022.35 1022.20 1021.99 1021.84 1021.67 1021.55 1021.35 1021.16 1020.99 1020.67 1020.40 1020.11 1019.79 1019.55 1019.16 1018.76 1018.35 1017.91 1017.55 1017.20 1016.72
1023.67 1023.72 1023.79 1023.88 1023.96 1023.96 1023.91 1023.84 1023.76 1023.67 1023.64 1023.64 1023.52 1023.43 1023.35 1023.23 1023.16 1023.03 1023.11 1023.03 1022.91 1022.76 1022.55 1022.40 1022.20 1021.99 1021.88 1021.72 1021.52 1021.28 1021.03 1020.76 1020.52 1020.23 1019.99 1019.59 1019.20 1018.79 1018.32 1017.88 1017.43 1016.99
1024.11 1024.16 1024.19 1024.28 1024.31 1024.35 1024.31 1024.28 1024.23 1024.16 1024.11 1023.99 1023.91 1023.84 1023.76 1023.72 1023.67 1023.67 1023.67 1023.55 1023.43 1023.28 1023.08 1022.84 1022.67 1022.43 1022.20 1021.99 1021.76 1021.55 1021.35 1021.11 1020.91 1020.64 1020.32 1019.91 1019.55 1019.23 1018.76 1018.20 1017.67 1017.23
1024.52 1024.47 1024.47 1024.56 1024.64 1024.64 1024.64 1024.64 1024.68 1024.59 1024.56 1024.59 1024.47 1024.28 1024.16 1024.11 1024.07 1024.11 1024.11 1024.04 1023.91 1023.76 1023.52 1023.28 1023.03 1022.84 1022.55 1022.35 1022.11 1021.91 1021.59 1021.32 1020.99 1020.76 1020.47 1020.11 1019.72 1019.32 1018.84 1018.35 1017.88 1017.40
1024.76 1024.76 1024.80 1024.88 1024.95 1024.95 1024.95 1024.95 1024.92 1024.88 1024.88 1024.83 1024.88 1024.76 1024.64 1024.52 1024.47 1024.47 1024.47 1024.35 1024.28 1024.11 1023.91 1023.64 1023.43 1023.20 1022.96 1022.76 1022.43 1022.20 1021.84 1021.47 1021.11 1020.76 1020.43 1020.11 1019.64 1019.20 1018.84 1018.35 1017.91 1017.47
1025.07 1025.04 1025.11 1025.19 1025.19 1025.16 1025.16 1025.11 1025.07 1025.07 1025.16 1025.23 1025.11 1024.99 1024.95 1024.83 1024.80 1024.76 1024.71 1024.64 1024.52 1024.35 1024.19 1023.99 1023.76 1023.52 1023.28 1023.03 1022.72 1022.35 1021.88 1021.52 1021.08 1020.72 1020.43 1020.03 1019.64 1019.16 1018.67 1018.32 1017.88 1017.43
1025.35 1025.31 1025.35 1025.40 1025.40 1025.35 1025.28 1025.28 1025.31 1025.40 1025.44 1025.40 1025.31 1025.31 1025.19 1025.19 1025.16 1025.07 1024.99 1024.88 1024.71 1024.59 1024.40 1024.19 1023.96 1023.72 1023.52 1023.32 1023.03 1022.59 1022.16 1021.72 1021.32 1020.91 1020.52 1020.08 1019.72 1019.23 1018.76 1018.32 1017.91 1017.43
1025.68 1025.71 1025.71 1025.68 1025.64 1025.59 1025.59 1025.59 1025.64 1025.59 1025.59 1025.59 1025.64 1025.64 1025.52 1025.44 1025.44 1025.31 1025.19 1025.04 1024.92 1024.76 1024.59 1024.35 1024.16 1023.91 1023.67 1023.47 1023.23 1022.88 1022.47 1022.08 1021.67 1021.20 1020.76 1020.32 1019.84 1019.40 1018.88 1018.43 1018.08 1017.72
1025.99 1025.99 1025.92 1025.92 1025.88 1025.88 1025.88 1025.92 1025.88 1025.88 1025.80 1025.83 1025.88 1025.83 1025.80 1025.76 1025.59 1025.47 1025.35 1025.23 1025.07 1024.92 1024.76 1024.56 1024.31 1024.07 1023.79 1023.59 1023.40 1023.08 1022.72 1022.32 1021.88 1021.43 1021.03 1020.55 1020.11 1019.67 1019.20 1018.79 1018.43 1018.03
1026.23 1026.11 1026.07 1026.11 1026.16 1026.19 1026.19 1026.19 1026.16 1026.16 1026.04 1025.99 1026.07 1026.04 1026.04 1025.95 1025.83 1025.64 1025.52 1025.40 1025.23 1025.07 1024.92 1024.71 1024.52 1024.28 1023.99 1023.76 1023.47 1023.20 1022.91 1022.55 1022.16 1021.76 1021.28 1020.79 1020.40 1019.99 1019.55 1019.20 1018.84 1018.55
1026.44 1026.35 1026.35 1026.44 1026.47 1026.52 1026.52 1026.47 1026.40 1026.35 1026.31 1026.28 1026.28 1026.28 1026.23 1026.16 1026.07 1025.92 1025.68 1025.59 1025.44 1025.28 1025.11 1024.95 1024.80 1024.52 1024.31 1023.99 1023.64 1023.32 1023.03 1022.72 1022.40 1022.03 1021.55 1021.11 1020.67 1020.23 1019.84 1019.47 1019.20 1018.84
1026.71 1026.71 1026.76 1026.80 1026.83 1026.83 1026.80 1026.71 1026.64 1026.64 1026.59 1026.59 1026.52 1026.47 1026.44 1026.35 1026.23 1026.11 1025.88 1025.76 1025.64 1025.47 1025.31 1025.23 1025.07 1024.80 1024.47 1024.16 1023.84 1023.55 1023.23 1022.96 1022.59 1022.20 1021.76 1021.32 1020.91 1020.52 1020.11 1019.72 1019.35 1019.03
1027.07 1027.07 1027.07 1027.11 1027.11 1027.11 1027.04 1026.99 1027.04 1026.99 1026.99 1026.95 1026.83 1026.71 1026.64 1026.56 1026.47 1026.31 1026.16 1025.99 1025.92 1025.80 1025.68 1025.47 1025.28 1024.95 1024.68 1024.47 1024.23 1023.91 1023.55 1023.16 1022.79 1022.35 1021.91 1021.47 1021.08 1020.72 1020.32 1019.91 1019.55 1019.20
1027.31 1027.35 1027.40 1027.40 1027.40 1027.35 1027.35 1027.44 1027.44 1027.44 1027.35 1027.28 1027.16 1027.04 1026.92 1026.80 1026.76 1026.59 1026.44 1026.28 1026.16 1026.04 1025.88 1025.64 1025.40 1025.16 1024.99 1024.92 1024.64 1024.16 1023.79 1023.35 1022.91 1022.52 1022.08 1021.59 1021.16 1020.84 1020.43 1020.03 1019.64 1019.32
1027.64 1027.68 1027.68 1027.68 1027.71 1027.76 1027.88 1027.88 1027.83 1027.76 1027.64 1027.47 1027.35 1027.28 1027.19 1027.07 1027.04 1026.88 1026.76 1026.68 1026.47 1026.31 1026.11 1025.88 1025.71 1025.44 1025.35 1025.19 1024.95 1024.59 1023.99 1023.55 1023.11 1022.67 1022.20 1021.76 1021.35 1020.91 1020.52 1020.16 1019.84 1019.52
1027.83 1027.92 1027.92 1028.04 1028.11 1028.19 1028.19 1028.16 1028.07 1027.95 1027.80 1027.68 1027.64 1027.59 1027.52 1027.44 1027.31 1027.16 1027.07 1026.95 1026.80 1026.64 1026.44 1026.16 1025.99 1025.68 1025.56 1025.28 1024.99 1024.68 1024.16 1023.67 1023.35 1022.88 1022.40 1021.96 1021.55 1021.16 1020.76 1020.28 1019.91 1019.59
1028.07 1028.11 1028.23 1028.40 1028.47 1028.52 1028.47 1028.40 1028.23 1028.04 1027.95 1027.92 1027.88 1027.88 1027.80 1027.68 1027.56 1027.47 1027.35 1027.23 1027.04 1026.88 1026.68 1026.44 1026.23 1025.88 1025.71 1025.40 1025.04 1024.71 1024.35 1023.91 1023.52 1023.16 1022.67 1022.20 1021.79 1021.40 1020.96 1020.55 1020.11 1019.64
1028.28 1028.44 1028.59 1028.71 1028.80 1028.80 1028.71 1028.56 1028.40 1028.28 1028.28 1028.28 1028.19 1028.23 1028.07 1027.88 1027.88 1027.76 1027.59 1027.47 1027.28 1027.16 1026.92 1026.68 1026.44 1026.07 1025.83 1025.56 1025.23 1024.88 1024.52 1024.04 1023.72 1023.40 1022.96 1022.52 1022.11 1021.67 1021.23 1020.84 1020.43 1019.96
1028.59 1028.71 1028.83 1028.95 1028.99 1028.92 1028.83 1028.71 1028.71 1028.68 1028.68 1028.59 1028.52 1028.35 1028.28 1028.16 1028.04 1027.95 1027.80 1027.71 1027.59 1027.44 1027.23 1026.92 1026.64 1026.23 1026.07 1025.76 1025.44 1025.04 1024.59 1024.19 1023.88 1023.47 1023.11 1022.72 1022.35 1021.99 1021.59 1021.16 1020.79 1020.35
1028.80 1028.88 1028.92 1028.99 1028.99 1028.99 1028.95 1028.99 1028.99 1028.99 1028.88 1028.83 1028.71 1028.64 1028.56 1028.47 1028.40 1028.23 1028.07 1027.95 1027.80 1027.59 1027.40 1027.11 1026.88 1026.47 1026.19 1025.88 1025.52 1025.16 1024.68 1024.23 1023.91 1023.52 1023.16 1022.76 1022.43 1022.11 1021.79 1021.40 1021.08 1020.67
1028.88 1028.95 1028.99 1029.04 1029.07 1029.11 1029.16 1029.23 1029.28 1029.31 1029.19 1029.07 1028.92 1028.80 1028.68 1028.56 1028.44 1028.35 1028.28 1028.16 1027.99 1027.83 1027.59 1027.35 1026.99 1026.59 1026.28 1025.95 1025.59 1025.23 1024.71 1024.28 1023.99 1023.59 1023.23 1022.91 1022.52 1022.20 1021.88 1021.55 1021.28 1020.84
1028.95 1028.95 1028.99 1029.11 1029.23 1029.31 1029.40 1029.47 1029.40 1029.31 1029.28 1029.28 1029.07 1029.04 1028.83 1028.71 1028.68 1028.64 1028.59 1028.47 1028.23 1028.04 1027.71 1027.47 1027.16 1026.68 1026.31 1026.04 1025.71 1025.35 1024.80 1024.47 1024.11 1023.76 1023.35 1023.03 1022.72 1022.35 1022.03 1021.72 1021.43 1020.99
1029.04 1028.99 1029.07 1029.28 1029.40 1029.47 1029.56 1029.59 1029.52 1029.47 1029.44 1029.52 1029.40 1029.28 1029.07 1029.07 1029.04 1028.92 1028.76 1028.64 1028.44 1028.19 1027.80 1027.68 1027.31 1026.76 1026.40 1026.11 1025.83 1025.52 1025.11 1024.76 1024.40 1024.04 1023.67 1023.35 1022.91 1022.47 1022.11 1021.84 1021.55 1021.16
1029.16 1029.19 1029.31 1029.44 1029.52 1029.64 1029.68 1029.59 1029.64 1029.64 1029.71 1029.64 1029.52 1029.47 1029.44 1029.44 1029.28 1029.19 1028.95 1028.64 1028.52 1028.35 1027.92 1027.71 1027.40 1026.88 1026.47 1026.28 1025.92 1025.64 1025.31 1024.92 1024.59 1024.28 1023.99 1023.64 1023.20 1022.67 1022.32 1022.11 1021.67 1021.28
1029.19 1029.28 1029.47 1029.52 1029.59 1029.71 1029.71 1029.71 1029.80 1029.71 1029.68 1029.68 1029.68 1029.80 1029.71 1029.68 1029.52 1029.35 1029.11 1028.83 1028.64 1028.40 1028.19 1027.92 1027.52 1026.99 1026.68 1026.47 1026.11 1025.80 1025.56 1025.23 1024.80 1024.56 1024.40 1024.04 1023.59 1023.16 1022.72 1022.28 1021.88 1021.35
Wind_Speed
9 8 8 8 8 7 8 8 8 8 8 7 7 8 8 7 8 10 10 9 10 9 10 10 10 10 9 9 9 8 7 8 7 8 9 9 8 9 9 10 10 9
9 9 7 7 7 8 8 8 8 8 8 8 7 7 7 8 8 10 11 11 11 11 11 11 11 11 11 10 10 9 8 8 9 7 9 10 8 9 10 11 11 10
8 8 9 9 8 9 8 8 7 7 8 8 8 8 7 8 9 9 10 11 11 11 12 12 12 12 12 11 11 10 8 10 10 11 10 10 9 9 10 11 10 12
8 7 7 8 8 8 7 8 8 7 7 8 9 8 7 8 9 10 10 12 11 11 11 12 12 11 12 12 12 9 10 9 10 11 11 10 10 10 10 10 10 11
7 7 7 8 8 8 8 9 9 9 9 8 8 8 9 9 9 10 10 10 10 11 10 11 11 11 11 11 12 11 12 11 11 11 10 10 10 10 9 9 11 12
7 6 7 8 8 8 8 9 9 9 9 10 9 8 8 9 9 10 10 9 9 9 10 10 10 10 10 11 11 10 11 10 11 11 11 10 10 9 8 8 10 11
7 7 7 6 7 8 8 9 9 8 9 7 7 9 8 8 9 10 9 8 8 9 9 9 9 10 9 9 11 11 9 9 10 9 12 10 10 11 10 10 10 11
8 7 7 6 6 7 8 8 8 8 7 8 9 8 8 8 8 8 8 8 9 9 10 10 10 10 9 9 12 12 12 9 10 12 12 13 11 11 12 10 11 12
8 8 8 8 8 8 9 8 8 8 8 9 8 8 8 8 8 8 8 8 8 9 9 10 10 10 9 10 13 14 14 12 12 11 12 12 13 13 13 12 12 11
8 7 9 9 9 8 10 9 8 8 8 9 8 8 8 8 8 8 8 8 9 10 10 11 11 11 10 10 12 13 13 13 12 12 12 12 12 12 13 12 12 12
8 8 9 10 10 9 9 8 8 8 7 8 9 9 8 8 7 7 8 8 10 11 11 12 11 11 12 12 11 11 10 10 11 12 13 13 13 12 13 12 12 11
7 8 9 9 8 8 8 7 7 8 8 7 8 9 8 8 8 8 8 9 10 11 11 12 11 11 11 13 12 12 10 10 10 10 12 13 13 13 13 12 12 12
7 7 7 7 7 7 7 7 8 8 8 8 7 7 8 9 9 9 8 8 9 10 11 11 11 11 12 14 14 14 11 11 11 11 12 10 11 12 13 13 13 12
6 6 6 7 7 7 8 8 8 8 8 7 7 8 8 9 10 9 9 8 8 8 10 9 11 10 12 15 14 13 13 11 11 12 12 12 12 12 12 12 13 13
6 5 6 7 7 8 8 8 8 7 7 7 7 7 7 8 9 8 9 9 9 8 8 9 10 10 11 14 14 14 12 11 11 11 13 13 14 14 12 12 12 12
6 6 7 7 8 8 8 7 7 7 7 8 8 8 8 8 9 8 8 8 8 9 8 8 9 8 17 21 19 15 13 10 9 10 12 13 13 14 13 14 14 13
7 7 8 8 7 7 7 6 6 6 7 8 8 8 9 8 8 9 9 8 8 8 9 8 8 10 21 18 19 22 15 11 10 10 11 12 13 13 14 15 14 14
7 8 8 7 7 6 5 5 5 7 8 8 8 9 8 7 9 9 8 8 8 7 8 9 8 16 18 20 20 20 20 12 9 9 10 10 12 13 12 13 14 14
7 7 7 6 6 5 5 6 7 7 8 8 8 6 6 8 8 8 8 8 8 8 8 9 8 15 18 20 19 20 19 15 9 9 9 10 11 13 14 14 14 14
6 6 6 5 5 5 6 7 7 7 6 6 6 7 8 8 8 9 8 9 8 8 7 8 9 14 18 19 18 19 18 13 9 9 9 10 11 11 12 14 14 14
5 5 5 5 5 6 6 6 6 6 7 6 6 7 7 7 7 8 7 7 8 8 8 8 8 17 16 18 17 18 18 11 10 9 9 10 10 10 11 13 14 13
4 4 4 5 5 6 6 6 5 5 6 6 6 7 6 6 7 7 8 9 9 9 8 9 9 15 16 17 18 18 17 8 9 10 10 10 10 11 11 12 13 14
4 4 4 4 5 5 5 4 4 6 6 5 7 7 7 8 8 8 7 7 8 8 8 8 9 13 16 17 17 19 14 10 10 9 10 10 10 11 10 12 13 15
3 4 4 4 4 3 3 3 4 4 5 5 6 7 8 8 7 7 7 6 7 8 8 8 9 12 16 18 18 18 15 10 9 8 10 11 12 10 10 12 14 22
3 4 4 3 3 2 2 3 3 3 3 4 6 6 6 6 6 6 7 7 7 7 11 10 9 10 15 17 19 18 15 9 8 10 12 12 13 13 14 13 13 15
3 3 2 2 2 1 2 3 2 3 6 6 6 5 5 6 6 6 7 7 7 7 7 8 9 10 11 17 18 18 18 11 8 10 12 14 13 14 14 13 14 14
Wind_Direction
46 44 41 37 37 40 36 32 25 29 24 20 18 12 12 28 23 20 14 12 12 12 7 2 360 358 354 351 353 346 340 339 329 333 332 327 325 326 320 315 306 295
47 46 44 44 44 43 39 37 35 34 30 25 20 15 14 19 23 22 14 8 7 6 2 3 3 0 356 351 349 346 339 341 335 341 332 329 328 325 321 322 316 310
41 46 46 45 46 43 39 35 35 36 34 31 29 26 23 20 14 20 16 11 4 4 4 2 1 359 355 354 349 345 343 342 343 342 337 335 333 330 326 323 321 320
39 44 53 53 49 50 45 46 40 36 34 30 26 26 30 27 26 23 19 16 12 10 6 7 3 360 357 354 350 349 348 349 345 342 339 336 336 332 326 326 323 323
44 43 50 55 54 51 49 49 43 39 39 33 24 26 29 30 30 30 24 18 15 11 7 5 2 1 357 355 358 356 353 347 343 340 335 328 327 330 328 328 327 323
44 48 52 57 54 52 50 47 45 42 37 35 29 27 29 28 35 31 22 18 13 11 7 4 1 360 357 354 355 356 350 344 341 333 328 328 324 324 321 316 319 321
43 47 52 55 60 56 55 50 45 42 41 36 34 35 26 30 30 26 21 16 13 13 9 5 360 359 359 353 358 350 340 335 331 330 335 326 325 324 323 324 320 321
46 48 50 51 55 49 51 49 46 44 37 36 39 29 27 28 27 24 21 16 17 13 11 8 3 1 359 359 359 352 344 338 338 333 339 338 330 326 327 329 326 328
52 50 49 49 50 46 43 39 37 38 38 39 36 31 26 26 20 23 18 17 19 15 12 11 4 1 360 359 0 359 352 348 339 335 333 332 337 338 338 340 342 339
54 53 52 49 50 45 45 40 37 35 36 39 34 31 29 21 22 18 19 16 16 13 13 10 5 2 360 360 0 358 355 349 342 340 336 336 337 338 339 340 340 339
51 49 50 48 48 44 43 39 35 34 32 35 31 29 23 19 17 12 19 14 15 13 9 10 5 1 360 357 356 354 348 345 345 348 350 345 342 340 339 340 340 341
51 48 46 46 45 42 35 31 30 30 28 27 27 24 18 18 17 11 14 11 13 10 9 9 4 2 1 358 354 353 348 346 345 341 347 350 348 344 341 339 339 337
53 52 49 46 42 37 32 27 25 23 21 19 16 15 18 14 12 14 10 11 8 8 8 6 3 1 2 360 355 353 347 346 343 342 344 346 346 345 345 344 339 336
57 53 50 47 42 36 31 27 22 18 14 8 6 10 13 13 10 8 6 8 7 7 6 4 3 3 5 2 356 351 349 344 345 346 344 345 346 346 346 344 342 339
57 51 47 44 39 36 30 24 20 14 13 11 14 13 11 12 11 8 6 5 4 3 0 3 7 4 6 1 357 352 349 346 347 345 347 347 348 347 345 343 344 342
61 55 51 47 42 37 33 29 24 22 20 22 22 20 18 15 14 11 11 8 3 1 2 4 4 4 359 357 1 359 349 348 345 345 349 350 346 345 345 345 344 342
61 57 54 50 46 44 40 34 26 20 24 25 24 21 17 14 14 16 13 6 6 1 2 3 359 3 358 355 357 359 358 351 350 344 345 350 349 344 342 342 342 340
62 59 57 50 50 46 37 29 21 23 23 20 19 17 12 11 18 13 11 7 4 0 3 1 356 360 357 356 356 357 358 354 350 346 344 344 347 346 342 342 340 339
63 63 61 56 50 42 32 25 22 17 12 9 9 3 6 17 11 10 9 5 5 1 356 356 349 355 356 356 354 354 352 354 352 345 343 341 341 344 344 344 343 340
65 68 66 61 48 42 36 30 23 16 5 2 5 4 14 12 10 10 6 7 3 358 344 354 351 355 354 354 352 351 349 350 351 346 343 341 341 340 342 344 344 342
73 70 68 55 45 41 38 31 22 11 10 4 10 10 13 10 7 5 3 3 359 357 353 353 353 351 352 353 352 351 345 350 351 348 344 343 340 339 339 344 344 342
93 79 67 55 48 42 39 25 19 12 14 359 10 8 9 11 12 11 7 360 355 354 351 354 346 346 353 354 353 352 346 351 350 350 347 341 342 342 340 347 346 345
101 93 76 64 53 52 36 25 17 12 13 10 18 11 10 11 7 3 353 354 350 351 351 351 347 347 353 356 356 354 353 354 352 348 347 344 341 339 341 346 348 349
105 96 87 72 65 63 49 25 19 16 22 12 28 12 13 3 354 356 351 352 353 352 353 355 345 345 356 357 358 358 356 354 350 347 344 345 341 337 343 347 348 350
101 94 100 93 83 60 52 42 22 25 356 13 23 21 10 353 352 358 351 355 356 352 355 0 346 349 357 357 358 360 1 353 353 349 349 346 345 345 350 348 347 350
112 109 112 125 125 64 46 39 10 28 20 22 17 17 2 357 354 358 358 354 347 352 353 352 350 347 356 357 359 358 1 358 349 357 351 344 346 350 349 348 349 347